User: anonymous   Login
Location: Observatorio Las Palmas
(29.0667°N, 110.9333°W)
Time: 11:49:34
(UTC-07:00)
Language:

Skynet4D Del rocket - Orbit

View from above orbital plane
View from above orbital plane
View from above satellite
View from above satellite

Ground track
Ground track

The orbit data is extracted from the following two-line orbital elements,

1 25135U 98002B   15245.42541943  .00000145  00000-0  25391-4 0  9998
2 25135  26.8874  18.7629 0356459 307.9956  87.7066 13.62313329879301
Epoch (UTC): 02 September 2015 10:12:36
Eccentricity: 0.0356459
inclination: 26.8874°
perigee height: 763 km
apogee height: 1291 km
right ascension of ascending node: 18.7629°
argument of perigee: 307.9956°
revolutions per day: 13.62313329
mean anomaly at epoch: 87.7066°
orbit number at epoch: 87930

The dashed part of the orbit path shows where the satellite is in the earth's shadow,  

DLR